Year,Month,Day,Hour,Minute,Value (Times are PST for temperature in C)
2012,07,15,00,00,15.80
2012,07,15,00,01,15.80
2012,07,15,00,02,15.80
2012,07,15,00,03,15.80
2012,07,15,00,04,15.70
2012,07,15,00,05,15.70
2012,07,15,00,06,15.70
2012,07,15,00,07,15.70
2012,07,15,00,08,15.70
2012,07,15,00,09,15.60
2012,07,15,00,10,15.60
2012,07,15,00,11,15.60
2012,07,15,00,12,15.60
2012,07,15,00,13,15.50
2012,07,15,00,14,15.50
2012,07,15,00,15,15.50
2012,07,15,00,16,15.40
2012,07,15,00,17,15.40
2012,07,15,00,18,15.40
2012,07,15,00,19,15.40
2012,07,15,00,20,15.30
2012,07,15,00,21,15.30
2012,07,15,00,22,15.30
2012,07,15,00,23,15.30
2012,07,15,00,24,15.30
2012,07,15,00,25,15.30
2012,07,15,00,26,15.30
2012,07,15,00,27,15.30
2012,07,15,00,28,15.30
2012,07,15,00,29,15.30
2012,07,15,00,30,15.30
2012,07,15,00,31,15.30
2012,07,15,00,32,15.30
2012,07,15,00,33,15.30
2012,07,15,00,34,15.30
2012,07,15,00,35,15.30
2012,07,15,00,36,15.30
2012,07,15,00,37,15.30
2012,07,15,00,38,15.30
2012,07,15,00,39,15.30
2012,07,15,00,40,15.30
2012,07,15,00,41,15.30
2012,07,15,00,42,15.30
2012,07,15,00,43,15.30
2012,07,15,00,44,15.30
2012,07,15,00,45,15.30
2012,07,15,00,46,15.30
2012,07,15,00,47,15.30
2012,07,15,00,48,15.30
2012,07,15,00,49,15.30
2012,07,15,00,50,15.30
2012,07,15,00,51,15.30
2012,07,15,00,52,15.20
2012,07,15,00,53,15.30
2012,07,15,00,54,15.30
2012,07,15,00,55,15.30
2012,07,15,00,56,15.20
2012,07,15,00,57,15.20
2012,07,15,00,58,15.20
2012,07,15,00,59,15.20
2012,07,15,01,00,15.20
2012,07,15,01,01,15.20
2012,07,15,01,02,15.20
2012,07,15,01,03,15.20
2012,07,15,01,04,15.20
2012,07,15,01,05,15.20
2012,07,15,01,06,15.20
2012,07,15,01,07,15.20
2012,07,15,01,08,15.20
2012,07,15,01,09,15.20
2012,07,15,01,10,15.20
2012,07,15,01,11,15.20
2012,07,15,01,12,15.20
2012,07,15,01,13,15.10
2012,07,15,01,14,15.10
2012,07,15,01,15,15.10
2012,07,15,01,16,15.10
2012,07,15,01,17,15.10
2012,07,15,01,18,15.10
2012,07,15,01,19,15.10
2012,07,15,01,20,15.10
2012,07,15,01,21,15.10
2012,07,15,01,22,15.00
2012,07,15,01,23,15.00
2012,07,15,01,24,15.00
2012,07,15,01,25,15.00
2012,07,15,01,26,14.90
2012,07,15,01,27,14.90
2012,07,15,01,28,14.90
2012,07,15,01,29,14.90
2012,07,15,01,30,14.90
2012,07,15,01,31,14.90
2012,07,15,01,32,14.90
2012,07,15,01,33,14.90
2012,07,15,01,34,14.90
2012,07,15,01,35,14.90
2012,07,15,01,36,14.90
2012,07,15,01,37,14.90
2012,07,15,01,38,14.90
2012,07,15,01,39,14.90
2012,07,15,01,40,14.90
2012,07,15,01,41,14.90
2012,07,15,01,42,14.90
2012,07,15,01,43,14.90
2012,07,15,01,44,14.90
2012,07,15,01,45,14.90
2012,07,15,01,46,14.90
2012,07,15,01,47,14.90
2012,07,15,01,48,14.90
2012,07,15,01,49,14.90
2012,07,15,01,50,14.90
2012,07,15,01,51,14.90
2012,07,15,01,52,14.90
2012,07,15,01,53,14.90
2012,07,15,01,54,14.90
2012,07,15,01,55,14.90
2012,07,15,01,56,14.90
2012,07,15,01,57,14.90
2012,07,15,01,58,14.90
2012,07,15,01,59,14.80
2012,07,15,02,00,14.80
2012,07,15,02,01,14.80
2012,07,15,02,02,14.80
2012,07,15,02,03,14.80
2012,07,15,02,04,14.80
2012,07,15,02,05,14.80
2012,07,15,02,06,14.80
2012,07,15,02,07,14.80
2012,07,15,02,08,14.80
2012,07,15,02,09,14.80
2012,07,15,02,10,14.80
2012,07,15,02,11,14.80
2012,07,15,02,12,14.80
2012,07,15,02,13,14.80
2012,07,15,02,14,14.80
2012,07,15,02,15,14.80
2012,07,15,02,16,14.80
2012,07,15,02,17,14.80
2012,07,15,02,18,14.80
2012,07,15,02,19,14.80
2012,07,15,02,20,14.80
2012,07,15,02,21,14.80
2012,07,15,02,22,14.80
2012,07,15,02,23,14.80
2012,07,15,02,24,14.80
2012,07,15,02,25,14.80
2012,07,15,02,26,14.80
2012,07,15,02,27,14.80
2012,07,15,02,28,14.70
2012,07,15,02,29,14.70
2012,07,15,02,30,14.70
2012,07,15,02,31,14.70
2012,07,15,02,32,14.70
2012,07,15,02,33,14.70
2012,07,15,02,34,14.70
2012,07,15,02,35,14.70
2012,07,15,02,36,14.70
2012,07,15,02,37,14.70
2012,07,15,02,38,14.70
2012,07,15,02,39,14.70
2012,07,15,02,40,14.70
2012,07,15,02,41,14.70
2012,07,15,02,42,14.70
2012,07,15,02,43,14.70
2012,07,15,02,44,14.70
2012,07,15,02,45,14.70
2012,07,15,02,46,14.70
2012,07,15,02,47,14.70
2012,07,15,02,48,14.70
2012,07,15,02,49,14.70
2012,07,15,02,50,14.70
2012,07,15,02,51,14.70
2012,07,15,02,52,14.70
2012,07,15,02,53,14.70
2012,07,15,02,54,14.70
2012,07,15,02,55,14.70
2012,07,15,02,56,14.70
2012,07,15,02,57,14.70
2012,07,15,02,58,14.70
2012,07,15,02,59,14.70
2012,07,15,03,00,14.70
2012,07,15,03,01,14.70
2012,07,15,03,02,14.70
2012,07,15,03,03,14.70
2012,07,15,03,04,14.70
2012,07,15,03,05,14.70
2012,07,15,03,06,14.70
2012,07,15,03,07,14.70
2012,07,15,03,08,14.70
2012,07,15,03,09,14.70
2012,07,15,03,10,14.70
2012,07,15,03,11,14.70
2012,07,15,03,12,14.70
2012,07,15,03,13,14.70
2012,07,15,03,14,14.70
2012,07,15,03,15,14.70
2012,07,15,03,16,14.70
2012,07,15,03,17,14.70
2012,07,15,03,18,14.70
2012,07,15,03,19,14.70
2012,07,15,03,20,14.70
2012,07,15,03,21,14.70
2012,07,15,03,22,14.70
2012,07,15,03,23,14.70
2012,07,15,03,24,14.70
2012,07,15,03,25,14.70
2012,07,15,03,26,14.70
2012,07,15,03,27,14.70
2012,07,15,03,28,14.70
2012,07,15,03,29,14.70
2012,07,15,03,30,14.70
2012,07,15,03,31,14.70
2012,07,15,03,32,14.70
2012,07,15,03,33,14.60
2012,07,15,03,34,14.60
2012,07,15,03,35,14.60
2012,07,15,03,36,14.60
2012,07,15,03,37,14.60
2012,07,15,03,38,14.60
2012,07,15,03,39,14.60
2012,07,15,03,40,14.60
2012,07,15,03,41,14.60
2012,07,15,03,42,14.60
2012,07,15,03,43,14.60
2012,07,15,03,44,14.60
2012,07,15,03,45,14.60
2012,07,15,03,46,14.60
2012,07,15,03,47,14.60
2012,07,15,03,48,14.60
2012,07,15,03,49,14.60
2012,07,15,03,50,14.60
2012,07,15,03,51,14.60
2012,07,15,03,52,14.60
2012,07,15,03,53,14.60
2012,07,15,03,54,14.60
2012,07,15,03,55,14.60
2012,07,15,03,56,14.60
2012,07,15,03,57,14.60
2012,07,15,03,58,14.60
2012,07,15,03,59,14.60
2012,07,15,04,00,14.60
2012,07,15,04,01,14.60
2012,07,15,04,02,14.60
2012,07,15,04,03,14.60
2012,07,15,04,04,14.70
2012,07,15,04,05,14.70
2012,07,15,04,06,14.70
2012,07,15,04,07,14.70
2012,07,15,04,08,14.70
2012,07,15,04,09,14.70
2012,07,15,04,10,14.70
2012,07,15,04,11,14.70
2012,07,15,04,12,14.70
2012,07,15,04,13,14.80
2012,07,15,04,14,14.70
2012,07,15,04,15,14.80
2012,07,15,04,16,14.80
2012,07,15,04,17,14.80
2012,07,15,04,18,14.80
2012,07,15,04,19,14.80
2012,07,15,04,20,14.80
2012,07,15,04,21,14.80
2012,07,15,04,22,14.80
2012,07,15,04,23,14.80
2012,07,15,04,24,14.80
2012,07,15,04,25,14.80
2012,07,15,04,26,14.80
2012,07,15,04,27,14.80
2012,07,15,04,28,14.80
2012,07,15,04,29,14.80
2012,07,15,04,30,14.80
2012,07,15,04,31,14.80
2012,07,15,04,32,14.80
2012,07,15,04,33,14.80
2012,07,15,04,34,14.80
2012,07,15,04,35,14.80
2012,07,15,04,36,14.80
2012,07,15,04,37,14.80
2012,07,15,04,38,14.90
2012,07,15,04,39,14.90
2012,07,15,04,40,14.90
2012,07,15,04,41,14.90
2012,07,15,04,42,14.90
2012,07,15,04,43,14.90
2012,07,15,04,44,14.90
2012,07,15,04,45,14.90
2012,07,15,04,46,14.90
2012,07,15,04,47,14.90
2012,07,15,04,48,14.90
2012,07,15,04,49,14.90
2012,07,15,04,50,14.90
2012,07,15,04,51,14.90
2012,07,15,04,52,15.00
2012,07,15,04,53,15.00
2012,07,15,04,54,15.00
2012,07,15,04,55,15.00
2012,07,15,04,56,15.00
2012,07,15,04,57,15.00
2012,07,15,04,58,15.00
2012,07,15,04,59,15.10
2012,07,15,05,00,15.10
2012,07,15,05,01,15.10
2012,07,15,05,02,15.10
2012,07,15,05,03,15.10
2012,07,15,05,04,15.10
2012,07,15,05,05,15.10
2012,07,15,05,06,15.10
2012,07,15,05,07,15.10
2012,07,15,05,08,15.10
2012,07,15,05,09,15.10
2012,07,15,05,10,15.10
2012,07,15,05,11,15.10
2012,07,15,05,12,15.10
2012,07,15,05,13,15.10
2012,07,15,05,14,15.10
2012,07,15,05,15,15.10
2012,07,15,05,16,15.10
2012,07,15,05,17,15.10
2012,07,15,05,18,15.10
2012,07,15,05,19,15.10
2012,07,15,05,20,15.10
2012,07,15,05,21,15.20
2012,07,15,05,22,15.20
2012,07,15,05,23,15.20
2012,07,15,05,24,15.20
2012,07,15,05,25,15.20
2012,07,15,05,26,15.20
2012,07,15,05,27,15.20
2012,07,15,05,28,15.20
2012,07,15,05,29,15.20
2012,07,15,05,30,15.20
2012,07,15,05,31,15.20
2012,07,15,05,32,15.20
2012,07,15,05,33,15.20
2012,07,15,05,34,15.20
2012,07,15,05,35,15.20
2012,07,15,05,36,15.20
2012,07,15,05,37,15.20
2012,07,15,05,38,15.20
2012,07,15,05,39,15.20
2012,07,15,05,40,15.30
2012,07,15,05,41,15.30
2012,07,15,05,42,15.30
2012,07,15,05,43,15.30
2012,07,15,05,44,15.30
2012,07,15,05,45,15.30
2012,07,15,05,46,15.30
2012,07,15,05,47,15.30
2012,07,15,05,48,15.30
2012,07,15,05,49,15.30
2012,07,15,05,50,15.30
2012,07,15,05,51,15.30
2012,07,15,05,52,15.30
2012,07,15,05,53,15.30
2012,07,15,05,54,15.30
2012,07,15,05,55,15.30
2012,07,15,05,56,15.30
2012,07,15,05,57,15.30
2012,07,15,05,58,15.30
2012,07,15,05,59,15.30
2012,07,15,06,00,15.30
2012,07,15,06,01,15.30
2012,07,15,06,02,15.30
2012,07,15,06,03,15.30
2012,07,15,06,04,15.30
2012,07,15,06,05,15.30
2012,07,15,06,06,15.30
2012,07,15,06,07,15.30
2012,07,15,06,08,15.30
2012,07,15,06,09,15.30
2012,07,15,06,10,15.30
2012,07,15,06,11,15.30
2012,07,15,06,12,15.30
2012,07,15,06,13,15.30
2012,07,15,06,14,15.30
2012,07,15,06,15,15.30
2012,07,15,06,16,15.30
2012,07,15,06,17,15.30
2012,07,15,06,18,15.30
2012,07,15,06,19,15.30
2012,07,15,06,20,15.30
2012,07,15,06,21,15.30
2012,07,15,06,22,15.30
2012,07,15,06,23,15.30
2012,07,15,06,24,15.30
2012,07,15,06,25,15.30
2012,07,15,06,26,15.30
2012,07,15,06,27,15.30
2012,07,15,06,28,15.30
2012,07,15,06,29,15.30
2012,07,15,06,30,15.30
2012,07,15,06,31,15.30
2012,07,15,06,32,15.30
2012,07,15,06,33,15.30
2012,07,15,06,34,15.30
2012,07,15,06,35,15.30
2012,07,15,06,36,15.30
2012,07,15,06,37,15.30
2012,07,15,06,38,15.30
2012,07,15,06,39,15.30
2012,07,15,06,40,15.30
2012,07,15,06,41,15.30
2012,07,15,06,42,15.30
2012,07,15,06,43,15.30
2012,07,15,06,44,15.30
2012,07,15,06,45,15.30
2012,07,15,06,46,15.40
2012,07,15,06,47,15.40
2012,07,15,06,48,15.40
2012,07,15,06,49,15.40
2012,07,15,06,50,15.40
2012,07,15,06,51,15.40
2012,07,15,06,52,15.40
2012,07,15,06,53,15.40
2012,07,15,06,54,15.40
2012,07,15,06,55,15.40
2012,07,15,06,56,15.50
2012,07,15,06,57,15.50
2012,07,15,06,58,15.50
2012,07,15,06,59,15.50
2012,07,15,07,00,15.50
2012,07,15,07,01,15.60
2012,07,15,07,02,15.60
2012,07,15,07,03,15.60
2012,07,15,07,04,15.60
2012,07,15,07,05,15.60
2012,07,15,07,06,15.60
2012,07,15,07,07,15.70
2012,07,15,07,08,15.70
2012,07,15,07,09,15.70
2012,07,15,07,10,15.70
2012,07,15,07,11,15.70
2012,07,15,07,12,15.70
2012,07,15,07,13,15.70
2012,07,15,07,14,15.70
2012,07,15,07,15,15.70
2012,07,15,07,16,15.70
2012,07,15,07,17,15.70
2012,07,15,07,18,15.80
2012,07,15,07,19,15.80
2012,07,15,07,20,15.80
2012,07,15,07,21,15.80
2012,07,15,07,22,15.80
2012,07,15,07,23,15.80
2012,07,15,07,24,15.80
2012,07,15,07,25,15.80
2012,07,15,07,26,15.80
2012,07,15,07,27,15.80
2012,07,15,07,28,15.80
2012,07,15,07,29,15.80
2012,07,15,07,30,15.90
2012,07,15,07,31,15.90
2012,07,15,07,32,15.90
2012,07,15,07,33,15.90
2012,07,15,07,34,16.00
2012,07,15,07,35,16.00
2012,07,15,07,36,16.00
2012,07,15,07,37,16.10
2012,07,15,07,38,16.10
2012,07,15,07,39,16.10
2012,07,15,07,40,16.10
2012,07,15,07,41,16.20
2012,07,15,07,42,16.20
2012,07,15,07,43,16.20
2012,07,15,07,44,16.20
2012,07,15,07,45,16.20
2012,07,15,07,46,16.20
2012,07,15,07,47,16.30
2012,07,15,07,48,16.30
2012,07,15,07,49,16.30
2012,07,15,07,50,16.30
2012,07,15,07,51,16.30
2012,07,15,07,52,16.30
2012,07,15,07,53,16.40
2012,07,15,07,54,16.40
2012,07,15,07,55,16.40
2012,07,15,07,56,16.50
2012,07,15,07,57,16.50
2012,07,15,07,58,16.60
2012,07,15,07,59,16.60
2012,07,15,08,00,16.70
2012,07,15,08,01,16.70
2012,07,15,08,02,16.80
2012,07,15,08,03,16.80
2012,07,15,08,04,16.90
2012,07,15,08,05,16.90
2012,07,15,08,06,17.00
2012,07,15,08,07,17.10
2012,07,15,08,08,17.20
2012,07,15,08,09,17.30
2012,07,15,08,10,17.30
2012,07,15,08,11,17.40
2012,07,15,08,12,17.40
2012,07,15,08,13,17.40
2012,07,15,08,14,17.40
2012,07,15,08,15,17.40
2012,07,15,08,16,17.50
2012,07,15,08,17,17.50
2012,07,15,08,18,17.60
2012,07,15,08,19,17.60
2012,07,15,08,20,17.60
2012,07,15,08,21,17.50
2012,07,15,08,22,17.40
2012,07,15,08,23,17.40
2012,07,15,08,24,17.50
2012,07,15,08,25,17.50
2012,07,15,08,26,17.60
2012,07,15,08,27,17.70
2012,07,15,08,28,17.80
2012,07,15,08,29,17.80
2012,07,15,08,30,17.80
2012,07,15,08,31,17.90
2012,07,15,08,32,17.90
2012,07,15,08,33,17.90
2012,07,15,08,34,17.90
2012,07,15,08,35,18.00
2012,07,15,08,36,18.00
2012,07,15,08,37,18.10
2012,07,15,08,38,18.20
2012,07,15,08,39,18.20
2012,07,15,08,40,18.30
2012,07,15,08,41,18.30
2012,07,15,08,42,18.30
2012,07,15,08,43,18.30
2012,07,15,08,44,18.30
2012,07,15,08,45,18.30
2012,07,15,08,46,18.30
2012,07,15,08,47,18.30
2012,07,15,08,48,18.40
2012,07,15,08,49,18.40
2012,07,15,08,50,18.40
2012,07,15,08,51,18.40
2012,07,15,08,52,18.40
2012,07,15,08,53,18.30
2012,07,15,08,54,18.30
2012,07,15,08,55,18.30
2012,07,15,08,56,18.20
2012,07,15,08,57,18.20
2012,07,15,08,58,18.20
2012,07,15,08,59,18.30
2012,07,15,09,00,18.30
2012,07,15,09,01,18.40
2012,07,15,09,02,18.40
2012,07,15,09,03,18.40
2012,07,15,09,04,18.50
2012,07,15,09,05,18.50
2012,07,15,09,06,18.60
2012,07,15,09,07,18.60
2012,07,15,09,08,18.70
2012,07,15,09,09,18.70
2012,07,15,09,10,18.70
2012,07,15,09,11,18.70
2012,07,15,09,12,18.60
2012,07,15,09,13,18.60
2012,07,15,09,14,18.60
2012,07,15,09,15,18.70
2012,07,15,09,16,18.70
2012,07,15,09,17,18.80
2012,07,15,09,18,18.80
2012,07,15,09,19,18.90
2012,07,15,09,20,18.90
2012,07,15,09,21,18.90
2012,07,15,09,22,19.00
2012,07,15,09,23,19.00
2012,07,15,09,24,19.00
2012,07,15,09,25,18.90
2012,07,15,09,26,19.00
2012,07,15,09,27,19.00
2012,07,15,09,28,18.90
2012,07,15,09,29,18.90
2012,07,15,09,30,18.90
2012,07,15,09,31,18.90
2012,07,15,09,32,18.90
2012,07,15,09,33,18.90
2012,07,15,09,34,19.00
2012,07,15,09,35,19.10
2012,07,15,09,36,19.10
2012,07,15,09,37,19.10
2012,07,15,09,38,19.20
2012,07,15,09,39,19.20
2012,07,15,09,40,19.20
2012,07,15,09,41,19.20
2012,07,15,09,42,19.30
2012,07,15,09,43,19.20
2012,07,15,09,44,19.30
2012,07,15,09,45,19.30
2012,07,15,09,46,19.30
2012,07,15,09,47,19.40
2012,07,15,09,48,19.50
2012,07,15,09,49,19.60
2012,07,15,09,50,19.70
2012,07,15,09,51,19.80
2012,07,15,09,52,19.90
2012,07,15,09,53,20.00
2012,07,15,09,54,20.00
2012,07,15,09,55,20.10
2012,07,15,09,56,20.10
2012,07,15,09,57,20.10
2012,07,15,09,58,20.10
2012,07,15,09,59,20.10
2012,07,15,10,00,20.00
2012,07,15,10,01,19.90
2012,07,15,10,02,19.80
2012,07,15,10,03,19.80
2012,07,15,10,04,19.70
2012,07,15,10,05,19.70
2012,07,15,10,06,19.60
2012,07,15,10,07,19.60
2012,07,15,10,08,19.60
2012,07,15,10,09,19.60
2012,07,15,10,10,19.60
2012,07,15,10,11,19.60
2012,07,15,10,12,19.60
2012,07,15,10,13,19.60
2012,07,15,10,14,19.50
2012,07,15,10,15,19.50
2012,07,15,10,16,19.50
2012,07,15,10,17,19.60
2012,07,15,10,18,19.60
2012,07,15,10,19,19.60
2012,07,15,10,20,19.60
2012,07,15,10,21,19.60
2012,07,15,10,22,19.70
2012,07,15,10,23,19.80
2012,07,15,10,24,19.80
2012,07,15,10,25,19.80
2012,07,15,10,26,19.90
2012,07,15,10,27,19.90
2012,07,15,10,28,19.90
2012,07,15,10,29,19.90
2012,07,15,10,30,20.00
2012,07,15,10,31,20.00
2012,07,15,10,32,20.00
2012,07,15,10,33,19.90
2012,07,15,10,34,19.90
2012,07,15,10,35,20.00
2012,07,15,10,36,20.00
2012,07,15,10,37,20.10
2012,07,15,10,38,20.20
2012,07,15,10,39,20.30
2012,07,15,10,40,20.40
2012,07,15,10,41,20.50
2012,07,15,10,42,20.50
2012,07,15,10,43,20.60
2012,07,15,10,44,20.60
2012,07,15,10,45,20.60
2012,07,15,10,46,20.60
2012,07,15,10,47,20.50
2012,07,15,10,48,20.50
2012,07,15,10,49,20.50
2012,07,15,10,50,20.40
2012,07,15,10,51,20.50
2012,07,15,10,52,20.50
2012,07,15,10,53,20.60
2012,07,15,10,54,20.60
2012,07,15,10,55,20.60
2012,07,15,10,56,20.50
2012,07,15,10,57,20.50
2012,07,15,10,58,20.60
2012,07,15,10,59,20.60
2012,07,15,11,00,20.60
2012,07,15,11,01,20.60
2012,07,15,11,02,20.70
2012,07,15,11,03,20.70
2012,07,15,11,04,20.70
2012,07,15,11,05,20.70
2012,07,15,11,06,20.80
2012,07,15,11,07,20.80
2012,07,15,11,08,20.70
2012,07,15,11,09,20.70
2012,07,15,11,10,20.70
2012,07,15,11,11,20.70
2012,07,15,11,12,20.70
2012,07,15,11,13,20.70
2012,07,15,11,14,20.70
2012,07,15,11,15,20.60
2012,07,15,11,16,20.60
2012,07,15,11,17,20.60
2012,07,15,11,18,20.60
2012,07,15,11,19,20.60
2012,07,15,11,20,20.60
2012,07,15,11,21,20.60
2012,07,15,11,22,20.60
2012,07,15,11,23,20.70
2012,07,15,11,24,20.70
2012,07,15,11,25,20.70
2012,07,15,11,26,20.70
2012,07,15,11,27,20.70
2012,07,15,11,28,20.70
2012,07,15,11,29,20.70
2012,07,15,11,30,20.70
2012,07,15,11,31,20.70
2012,07,15,11,32,20.70
2012,07,15,11,33,20.80
2012,07,15,11,34,20.80
2012,07,15,11,35,20.80
2012,07,15,11,36,20.90
2012,07,15,11,37,21.00
2012,07,15,11,38,21.00
2012,07,15,11,39,21.10
2012,07,15,11,40,21.10
2012,07,15,11,41,21.10
2012,07,15,11,42,21.10
2012,07,15,11,43,21.20
2012,07,15,11,44,21.20
2012,07,15,11,45,21.20
2012,07,15,11,46,21.20
2012,07,15,11,47,21.20
2012,07,15,11,48,21.20
2012,07,15,11,49,21.30
2012,07,15,11,50,21.30
2012,07,15,11,51,21.20
2012,07,15,11,52,21.30
2012,07,15,11,53,21.40
2012,07,15,11,54,21.40
2012,07,15,11,55,21.50
2012,07,15,11,56,21.60
2012,07,15,11,57,21.70
2012,07,15,11,58,21.70
2012,07,15,11,59,21.70
2012,07,15,12,00,21.60
2012,07,15,12,01,21.60
2012,07,15,12,02,21.60
2012,07,15,12,03,21.60
2012,07,15,12,04,21.70
2012,07,15,12,05,21.70
2012,07,15,12,06,21.70
2012,07,15,12,07,21.70
2012,07,15,12,08,21.70
2012,07,15,12,09,21.70
2012,07,15,12,10,21.70
2012,07,15,12,11,21.80
2012,07,15,12,12,21.80
2012,07,15,12,13,21.80
2012,07,15,12,14,21.80
2012,07,15,12,15,21.70
2012,07,15,12,16,21.70
2012,07,15,12,17,21.70
2012,07,15,12,18,21.70
2012,07,15,12,19,21.70
2012,07,15,12,20,21.80
2012,07,15,12,21,21.90
2012,07,15,12,22,21.90
2012,07,15,12,23,21.90
2012,07,15,12,24,22.00
2012,07,15,12,25,22.10
2012,07,15,12,26,22.10
2012,07,15,12,27,22.20
2012,07,15,12,28,22.20
2012,07,15,12,29,22.20
2012,07,15,12,30,22.20
2012,07,15,12,31,22.30
2012,07,15,12,32,22.30
2012,07,15,12,33,22.30
2012,07,15,12,34,22.40
2012,07,15,12,35,22.40
2012,07,15,12,36,22.50
2012,07,15,12,37,22.50
2012,07,15,12,38,22.60
2012,07,15,12,39,22.70
2012,07,15,12,40,22.70
2012,07,15,12,41,22.70
2012,07,15,12,42,22.70
2012,07,15,12,43,22.70
2012,07,15,12,44,22.70
2012,07,15,12,45,22.80
2012,07,15,12,46,22.80
2012,07,15,12,47,22.80
2012,07,15,12,48,22.80
2012,07,15,12,49,22.90
2012,07,15,12,50,22.90
2012,07,15,12,51,22.80
2012,07,15,12,52,22.80
2012,07,15,12,53,22.90
2012,07,15,12,54,22.90
2012,07,15,12,55,22.90
2012,07,15,12,56,23.00
2012,07,15,12,57,23.00
2012,07,15,12,58,23.10
2012,07,15,12,59,23.10
2012,07,15,13,00,23.10
2012,07,15,13,01,23.20
2012,07,15,13,02,23.20
2012,07,15,13,03,23.20
2012,07,15,13,04,23.20
2012,07,15,13,05,23.20
2012,07,15,13,06,23.20
2012,07,15,13,07,23.20
2012,07,15,13,08,23.30
2012,07,15,13,09,23.40
2012,07,15,13,10,23.40
2012,07,15,13,11,23.50
2012,07,15,13,12,23.50
2012,07,15,13,13,23.60
2012,07,15,13,14,23.60
2012,07,15,13,15,23.60
2012,07,15,13,16,23.50
2012,07,15,13,17,23.40
2012,07,15,13,18,23.30
2012,07,15,13,19,23.30
2012,07,15,13,20,23.30
2012,07,15,13,21,23.40
2012,07,15,13,22,23.50
2012,07,15,13,23,23.50
2012,07,15,13,24,23.60
2012,07,15,13,25,23.70
2012,07,15,13,26,23.70
2012,07,15,13,27,23.70
2012,07,15,13,28,23.70
2012,07,15,13,29,23.70
2012,07,15,13,30,23.70
2012,07,15,13,31,23.70
2012,07,15,13,32,23.70
2012,07,15,13,33,23.60
2012,07,15,13,34,23.60
2012,07,15,13,35,23.70
2012,07,15,13,36,23.70
2012,07,15,13,37,23.70
2012,07,15,13,38,23.80
2012,07,15,13,39,23.90
2012,07,15,13,40,23.90
2012,07,15,13,41,24.00
2012,07,15,13,42,24.10
2012,07,15,13,43,24.00
2012,07,15,13,44,24.00
2012,07,15,13,45,24.10
2012,07,15,13,46,24.20
2012,07,15,13,47,24.30
2012,07,15,13,48,24.30
2012,07,15,13,49,24.40
2012,07,15,13,50,24.40
2012,07,15,13,51,24.40
2012,07,15,13,52,24.40
2012,07,15,13,53,24.40
2012,07,15,13,54,24.50
2012,07,15,13,55,24.50
2012,07,15,13,56,24.50
2012,07,15,13,57,24.40
2012,07,15,13,58,24.30
2012,07,15,13,59,24.30
2012,07,15,14,00,24.20
2012,07,15,14,01,24.10
2012,07,15,14,02,24.10
2012,07,15,14,03,24.10
2012,07,15,14,04,24.00
2012,07,15,14,05,24.00
2012,07,15,14,06,24.00
2012,07,15,14,07,24.00
2012,07,15,14,08,24.00
2012,07,15,14,09,24.00
2012,07,15,14,10,24.00
2012,07,15,14,11,24.00
2012,07,15,14,12,23.90
2012,07,15,14,13,23.90
2012,07,15,14,14,23.90
2012,07,15,14,15,23.90
2012,07,15,14,16,23.90
2012,07,15,14,17,23.80
2012,07,15,14,18,23.80
2012,07,15,14,19,23.80
2012,07,15,14,20,23.80
2012,07,15,14,21,23.90
2012,07,15,14,22,23.90
2012,07,15,14,23,23.90
2012,07,15,14,24,24.00
2012,07,15,14,25,24.10
2012,07,15,14,26,24.10
2012,07,15,14,27,24.20
2012,07,15,14,28,24.30
2012,07,15,14,29,24.40
2012,07,15,14,30,24.50
2012,07,15,14,31,24.60
2012,07,15,14,32,24.60
2012,07,15,14,33,24.70
2012,07,15,14,34,24.70
2012,07,15,14,35,24.70
2012,07,15,14,36,24.80
2012,07,15,14,37,24.80
2012,07,15,14,38,24.80
2012,07,15,14,39,24.80
2012,07,15,14,40,24.90
2012,07,15,14,41,24.90
2012,07,15,14,42,24.90
2012,07,15,14,43,24.90
2012,07,15,14,44,24.90
2012,07,15,14,45,24.90
2012,07,15,14,46,25.00
2012,07,15,14,47,25.10
2012,07,15,14,48,25.00
2012,07,15,14,49,25.00
2012,07,15,14,50,25.00
2012,07,15,14,51,25.00
2012,07,15,14,52,25.00
2012,07,15,14,53,25.00
2012,07,15,14,54,25.00
2012,07,15,14,55,25.00
2012,07,15,14,56,25.10
2012,07,15,14,57,25.10
2012,07,15,14,58,25.10
2012,07,15,14,59,25.10
2012,07,15,15,00,25.10
2012,07,15,15,01,25.00
2012,07,15,15,02,25.00
2012,07,15,15,03,25.00
2012,07,15,15,04,25.00
2012,07,15,15,05,25.00
2012,07,15,15,06,24.90
2012,07,15,15,07,24.90
2012,07,15,15,08,24.90
2012,07,15,15,09,24.90
2012,07,15,15,10,24.90
2012,07,15,15,11,25.00
2012,07,15,15,12,25.00
2012,07,15,15,13,25.10
2012,07,15,15,14,25.10
2012,07,15,15,15,25.00
2012,07,15,15,16,24.90
2012,07,15,15,17,24.90
2012,07,15,15,18,24.90
2012,07,15,15,19,24.90
2012,07,15,15,20,24.90
2012,07,15,15,21,24.80
2012,07,15,15,22,24.80
2012,07,15,15,23,24.80
2012,07,15,15,24,24.80
2012,07,15,15,25,24.80
2012,07,15,15,26,24.80
2012,07,15,15,27,24.70
2012,07,15,15,28,24.70
2012,07,15,15,29,24.80
2012,07,15,15,30,24.80
2012,07,15,15,31,24.90
2012,07,15,15,32,24.90
2012,07,15,15,33,24.90
2012,07,15,15,34,24.90
2012,07,15,15,35,25.00
2012,07,15,15,36,25.00
2012,07,15,15,37,24.90
2012,07,15,15,38,24.90
2012,07,15,15,39,24.90
2012,07,15,15,40,24.90
2012,07,15,15,41,24.90
2012,07,15,15,42,24.80
2012,07,15,15,43,24.80
2012,07,15,15,44,24.80
2012,07,15,15,45,24.80
2012,07,15,15,46,24.80
2012,07,15,15,47,24.80
2012,07,15,15,48,24.80
2012,07,15,15,49,24.80
2012,07,15,15,50,24.80
2012,07,15,15,51,24.90
2012,07,15,15,52,24.90
2012,07,15,15,53,24.90
2012,07,15,15,54,24.90
2012,07,15,15,55,24.90
2012,07,15,15,56,24.90
2012,07,15,15,57,24.90
2012,07,15,15,58,25.00
2012,07,15,15,59,25.00
2012,07,15,16,00,25.00
2012,07,15,16,01,24.90
2012,07,15,16,02,24.90
2012,07,15,16,03,24.90
2012,07,15,16,04,25.00
2012,07,15,16,05,25.00
2012,07,15,16,06,25.00
2012,07,15,16,07,25.00
2012,07,15,16,08,25.10
2012,07,15,16,09,25.10
2012,07,15,16,10,25.20
2012,07,15,16,11,25.20
2012,07,15,16,12,25.20
2012,07,15,16,13,25.20
2012,07,15,16,14,25.30
2012,07,15,16,15,25.40
2012,07,15,16,16,25.50
2012,07,15,16,17,25.50
2012,07,15,16,18,25.50
2012,07,15,16,19,25.50
2012,07,15,16,20,25.50
2012,07,15,16,21,25.50
2012,07,15,16,22,25.40
2012,07,15,16,23,25.30
2012,07,15,16,24,25.20
2012,07,15,16,25,25.00
2012,07,15,16,26,25.00
2012,07,15,16,27,25.00
2012,07,15,16,28,24.90
2012,07,15,16,29,24.90
2012,07,15,16,30,24.90
2012,07,15,16,31,24.90
2012,07,15,16,32,24.90
2012,07,15,16,33,24.90
2012,07,15,16,34,25.00
2012,07,15,16,35,25.00
2012,07,15,16,36,25.00
2012,07,15,16,37,25.10
2012,07,15,16,38,25.20
2012,07,15,16,39,25.20
2012,07,15,16,40,25.20
2012,07,15,16,41,25.20
2012,07,15,16,42,25.20
2012,07,15,16,43,25.30
2012,07,15,16,44,25.30
2012,07,15,16,45,25.30
2012,07,15,16,46,25.30
2012,07,15,16,47,25.30
2012,07,15,16,48,25.30
2012,07,15,16,49,25.30
2012,07,15,16,50,25.30
2012,07,15,16,51,25.30
2012,07,15,16,52,25.30
2012,07,15,16,53,25.30
2012,07,15,16,54,25.30
2012,07,15,16,55,25.30
2012,07,15,16,56,25.30
2012,07,15,16,57,25.20
2012,07,15,16,58,25.20
2012,07,15,16,59,25.20
2012,07,15,17,00,25.20
2012,07,15,17,01,25.30
2012,07,15,17,02,25.30
2012,07,15,17,03,25.30
2012,07,15,17,04,25.40
2012,07,15,17,05,25.40
2012,07,15,17,06,25.60
2012,07,15,17,07,25.60
2012,07,15,17,08,25.70
2012,07,15,17,09,25.70
2012,07,15,17,10,25.70
2012,07,15,17,11,25.70
2012,07,15,17,12,25.70
2012,07,15,17,13,25.70
2012,07,15,17,14,25.70
2012,07,15,17,15,25.70
2012,07,15,17,16,25.70
2012,07,15,17,17,25.70
2012,07,15,17,18,25.80
2012,07,15,17,19,25.80